This demonstration page uses our WeatherBlox Daily Observations layout. Learn more.

Left ArrowRight Arrow

Hourly Observations for June 8, 2021

Temp ( °F °C ) Dew Point ( °F °C ) Humidity (%) Winds ( mph kmh ) Pressure ( in mb ) Visibility ( mi km ) Precip ( " mm )
12:53 am 00:53 Clear 49 9.4 31 -0.6 50 50 ENE 7 11 29.90 1013 10 16 N/A
1:53 am 01:53 Clear 49 9.4 32 undefined 52 52 NE 6 9 29.91 1013 10 16 N/A
2:53 am 02:53 Clear 47 8.3 34 1.1 61 61 ENE 6 9 29.90 1013 10 16 N/A
3:53 am 03:53 Clear 45 7.2 32 undefined 61 61 ENE 6 9 29.91 1013 10 16 N/A
4:53 am 04:53 Mostly Clear 49 9.4 31 -0.6 50 50 ENE 3 6 29.92 1013 10 16 N/A
5:53 am 05:53 Cloudy 50 10 32 undefined 50 50 NE 8 13 29.92 1013 10 16 N/A
6:53 am 06:53 Cloudy 54 12.2 31 -0.6 42 42 ENE 13 20 29.90 1013 10 16 N/A
7:05 am 07:05 Cloudy 55 12.8 32 undefined 42 42 E 16 26 29.89 1012 10 16 N/A
7:53 am 07:53 Partly Cloudy with Light Rain 56 13.3 35 1.7 46 46 E 22 35 29.86 1011 10 16 0.00 0.00
8:53 am 08:53 Sunny with Light Rain 59 15 33 0.6 38 38 ENE 20 31 29.84 1011 10 16 0.00 0.00
9:53 am 09:53 Sunny with Light Rain 63 17.2 35 1.7 35 35 NE 13 20 29.85 1011 10 16 0.00 0.00
10:53 am 10:53 Partly Cloudy with Light Rain 65 18.3 32 undefined 29 29 E 17 28 29.84 1011 10 16 0.00 0.00
11:53 am 11:53 Mostly Cloudy with Light Rain 67 19.4 34 1.1 30 30 E 13 20 29.86 1011 10 16 0.00 0.00
12:53 pm 12:53 Partly Cloudy 71 21.7 36 2.2 28 28 E 10 17 29.85 1011 10 16 0.00 0.00
1:53 pm 13:53 Sunny 75 23.9 37 2.8 25 25 ESE 17 28 29.84 1010 10 16 N/A
2:53 pm 14:53 Sunny 75 23.9 38 3.3 26 26 ESE 9 15 29.83 1010 10 16 N/A
3:53 pm 15:53 Cloudy 72 22.2 46 7.8 40 40 E 6 9 29.87 1012 10 16 N/A
4:53 pm 16:53 Mostly Cloudy 69 20.6 49 9.4 49 49 E 24 39 29.80 1009 10 16 0.01 0.25
5:53 pm 17:53 Sunny 67 19.4 52 11.1 59 59 ESE 16 26 29.82 1010 10 16 N/A
6:53 pm 18:53 Sunny 69 20.6 54 12.2 59 59 E 12 19 29.85 1011 10 16 N/A
7:53 pm 19:53 Sunny 69 20.6 50 10 51 51 ENE 9 15 29.85 1011 10 16 N/A
8:53 pm 20:53 Sunny 62 16.7 46 7.8 56 56 NNE 14 22 29.87 1012 10 16 N/A
9:53 pm 21:53 Clear 59 15 46 7.8 62 62 NE 13 20 29.93 1013 10 16 N/A
10:53 pm 22:53 Mostly Clear 57 13.9 46 7.8 67 67 ENE 16 26 29.93 1014 10 16 N/A
11:53 pm 23:53 Clear 57 13.9 46 7.8 67 67 ENE 10 17 29.93 1014 10 16 N/A

Powered by AerisWeather